Skip Page Navigation
NASA JPL Caltech
NASA Logo - Jet Propulsion Laboratory + View the NASA Portal
+ Center for Near-Earth Object Studies
JPL Home Earth Solar System Stars & Galaxies Technology
JPL Solar System Dynamics
BODIES ORBITS EPHEMERIDES TOOLS PHYSICAL DATA DISCOVERY FAQ SITE MAP
IMPORTANT: The SSD Announcement email list is now available. Major changes are coming in the near future, including possible hostname and/or URL changes. To be notified of such changes, subscribe to this email list.

Please visit this page for more details.


JPL Small-Body Database Browser
Search: [ help ]  
46202 (2001 FR151)
Classification: Main-belt Asteroid          SPK-ID: 2046202
Ephemeris | Orbit Diagram | Orbital Elements | Mission Design | Physical Parameters | Discovery Circumstances | Close-Approach Data ]

[ show orbit diagram ]
Orbital Elements at Epoch 2458600.5 (2019-Apr-27.0) TDB
Reference: JPL 23 (heliocentric ecliptic J2000)
 Element Value Uncertainty (1-sigma)   Units 
e .02413007300430334 4.7782e-08  
a 2.668699591748551 1.7996e-08 au
q 2.604303675773104 1.2767e-07 au
i 15.63945321517411 5.59e-06 deg
node 108.7674213105837 1.5933e-05 deg
peri 150.0378575277896 0.00010614 deg
M 349.4087767941842 0.00010248 deg
tp 2458647.348056693393
(2019-Jun-12.84805669)
0.00045318 TDB
period 1592.38456992961
4.36
1.6107e-05
4.41e-08
d
yr
n .2260760414275513 2.2868e-09 deg/d
Q 2.733095507723998 1.843e-08 au
  Orbit Determination Parameters
   # obs. used (total)      856  
   data-arc span      8621 days (23.60 yr)  
   first obs. used      1996-01-12  
   last obs. used      2019-08-20  
   planetary ephem.      DE431  
   SB-pert. ephem.      SB431-N16  
   condition code      0  
   norm. resid. RMS      .50522  
   source      ORB  
   producer      Otto Matic  
   solution date      2019-Sep-24 02:11:06  

Additional Information
 Earth MOID = 1.5928 au 
 Jupiter MOID = 2.40234 au 
 T_jup = 3.329 
[ show covariance matrix ]

Ephemeris | Orbit Diagram | Orbital Elements | Mission Design | Physical Parameters | Discovery Circumstances | Close-Approach Data ]

Physical Parameter Table
Parameter Symbol Value Units Sigma Reference Notes
absolute magnitude H 14.9   n/a MPO449292  
diameter diameter 3.481 km 0.235 urn:nasa:pds:neowise_diameters_albedos::2.0[mainbelt] (http://adsabs.harvard.edu/abs/2011ApJ...741...68M)  
geometric albedo albedo 0.211   0.043 urn:nasa:pds:neowise_diameters_albedos::2.0[mainbelt] (http://adsabs.harvard.edu/abs/2011ApJ...741...68M)  

46202 (2001 FR151)          Discovered 2001-Mar-24 by JPL/NEAT at Haleakala
Reference: 20020822/Numbers.arcLast Updated: 2004-04-19

[ show close-approach data ]
Alternate Designations
 2001 FR151 = 2000 AB76 
Ephemeris | Orbit Diagram | Orbital Elements | Mission Design | Physical Parameters | Discovery Circumstances | Close-Approach Data ]
ABOUT SSD CREDITS/AWARDS PRIVACY/COPYRIGHT GLOSSARY LINKS
FirstGov
(server date/time)  
NASA Home Page
Site Manager:   Ryan S. Park
Webmaster  Alan B. Chamberlin